Weather History for Haines, AK

Change the Weather History Date:

Friday, October 14, 2011

  Actual Average Record
Temperature  
Mean Temperature 41 °F -  
Max Temperature 46 °F 45 °F 55 °F (1981)
Min Temperature 36 °F 37 °F 21 °F (1992)
Degree Days  
Heating Degree Days 24    
Moisture  
Dew Point 38 °F    
Average Humidity 85    
Maximum Humidity 100    
Minimum Humidity 79    
Precipitation  
Precipitation 0.00 in - - ()
Sea Level Pressure  
Sea Level Pressure 30.03 in    
Wind  
Wind Speed 8 mph (East)    
Max Wind Speed 16 mph    
Max Gust Speed 29 mph    
Visibility 10 miles    
Events Rain    
Averages and records for this station are not official NWS values.
T = Trace of Precipitation, MM = Missing Value Source: NWS Daily Summary

Daily Weather History Graph

Daily Weather History Graph

Search for Another Location

Airport:

Trip Planner

Search our weather history database for the weather conditions in past years. The results will help you decide how hot, cold, wet, or windy it might be!

Date:

Astronomy

Oct. 14, 2011 Rise Set
Actual Time 7:37 AM AKDT 5:57 PM AKDT
Civil Twilight 6:56 AM AKDT 6:38 PM AKDT
Nautical Twilight 6:08 AM AKDT 7:25 PM AKDT
Astronomical Twilight 5:21 AM AKDT 8:13 PM AKDT
Moon 6:18 PM AKDT (10/14) 11:09 AM AKDT (10/14)
Length of Visible Light 11h 42m
Length of Day
10h 20m
Waning Gibbous, 93% of the Moon is Illuminated
Oct 14
Waning Gibbous
Oct 19
Last Quarter
Oct 26
New
Nov 2
First Quarter
Nov 10
Full

Hourly Weather History & Observations

Time (AKDT) Temp. Windchill Dew Point Humidity Pressure Visibility Wind Dir Wind Speed Gust Speed Precip Events Conditions
12:22 AM 42.8 °F 39.3 °F 37.4 °F 81% 30.08 in 10.0 mi ENE 5.8 mph - N/A   Overcast
12:54 AM 43.0 °F 38.8 °F 37.9 °F 82% 30.09 in 10.0 mi Variable 6.9 mph - N/A   Overcast
1:16 AM 42.8 °F 38.6 °F 39.2 °F 87% 30.08 in 10.0 mi ENE 6.9 mph - N/A   Overcast
1:35 AM 42.8 °F 37.5 °F 37.4 °F 81% 30.08 in 10.0 mi ENE 9.2 mph 17.3 mph N/A   Overcast
1:54 AM 43.0 °F 38.8 °F 37.9 °F 82% 30.08 in 10.0 mi Variable 6.9 mph - N/A   Overcast
2:09 AM 42.8 °F 39.3 °F 37.4 °F 81% 30.07 in 10.0 mi Variable 5.8 mph - N/A   Overcast
2:38 AM 42.8 °F 40.1 °F 37.4 °F 81% 30.07 in 10.0 mi ENE 4.6 mph - N/A   Overcast
3:54 AM 42.1 °F 38.4 °F 37.9 °F 85% 30.07 in 10.0 mi ENE 5.8 mph - N/A   Partly Cloudy
4:34 AM 42.8 °F - 37.4 °F 81% 30.06 in 10.0 mi Calm Calm - N/A   Overcast
4:54 AM 37.9 °F 32.7 °F 36.0 °F 93% 30.07 in 10.0 mi West 6.9 mph - N/A   Overcast
5:04 AM 37.4 °F 33.8 °F 35.6 °F 93% 30.06 in 10.0 mi WNW 4.6 mph - N/A   Mostly Cloudy
5:38 AM 37.4 °F 32.1 °F 35.6 °F 93% 30.06 in 10.0 mi WNW 6.9 mph - N/A   Overcast
5:54 AM 37.0 °F 31.0 °F 36.0 °F 96% 30.07 in 10.0 mi WNW 8.1 mph - N/A   Overcast
6:01 AM 37.4 °F 31.4 °F 35.6 °F 93% 30.06 in 10.0 mi WNW 8.1 mph - N/A   Overcast
6:54 AM 36.0 °F 29.6 °F 36.0 °F 100% 30.06 in 10.0 mi WNW 8.1 mph - N/A   Partly Cloudy
7:18 AM 37.4 °F 32.1 °F 35.6 °F 93% 30.06 in 10.0 mi WNW 6.9 mph - N/A   Overcast
7:54 AM 37.0 °F 31.0 °F 36.0 °F 96% 30.06 in 10.0 mi WNW 8.1 mph - N/A   Overcast
8:54 AM 37.0 °F 30.4 °F 36.0 °F 96% 30.05 in 10.0 mi WNW 9.2 mph - N/A   Overcast
9:54 AM 37.9 °F 31.5 °F 36.0 °F 93% 30.05 in 10.0 mi West 9.2 mph - N/A   Overcast
10:54 AM 39.9 °F 37.8 °F 37.0 °F 89% 30.05 in 10.0 mi West 3.5 mph - N/A   Overcast
11:54 AM 44.1 °F 41.5 °F 39.0 °F 82% 30.04 in 10.0 mi East 4.6 mph - N/A   Overcast
12:54 PM 45.0 °F 42.6 °F 39.0 °F 80% 30.04 in 10.0 mi Variable 4.6 mph - N/A   Overcast
1:54 PM 46.0 °F 41.4 °F 39.9 °F 79% 30.03 in 10.0 mi ESE 9.2 mph 17.3 mph N/A   Overcast
2:54 PM 46.0 °F 40.6 °F 39.9 °F 79% 30.02 in 10.0 mi ESE 11.5 mph 24.2 mph N/A   Overcast
3:54 PM 45.0 °F 38.9 °F 39.0 °F 80% 30.00 in 10.0 mi ESE 12.7 mph 23.0 mph N/A   Overcast
4:54 PM 45.0 °F 39.3 °F 39.9 °F 82% 29.99 in 10.0 mi ESE 11.5 mph 21.9 mph N/A   Overcast
5:54 PM 44.1 °F 37.7 °F 39.0 °F 82% 29.98 in 10.0 mi ESE 12.7 mph 21.9 mph N/A   Overcast
6:54 PM 44.1 °F 39.0 °F 39.0 °F 82% 29.97 in 10.0 mi East 9.2 mph 16.1 mph N/A   Overcast
7:54 PM 44.1 °F 40.1 °F 39.0 °F 82% 29.97 in 10.0 mi Variable 6.9 mph 26.5 mph N/A   Overcast
8:54 PM 44.1 °F 38.6 °F 39.0 °F 82% 29.97 in 10.0 mi ESE 10.4 mph 23.0 mph N/A   Overcast
9:54 PM 44.1 °F 37.4 °F 39.0 °F 82% 29.96 in 10.0 mi East 13.8 mph 26.5 mph N/A   Overcast
10:17 PM 44.6 °F 38.4 °F 39.2 °F 81% 29.95 in 10.0 mi ESE 12.7 mph 25.3 mph N/A   Overcast
10:26 PM 44.6 °F 37.4 °F 39.2 °F 81% 29.95 in 10.0 mi ESE 16.1 mph 28.8 mph N/A   Overcast
10:54 PM 44.1 °F 37.7 °F 39.0 °F 82% 29.96 in 10.0 mi East 12.7 mph 21.9 mph N/A   Overcast
11:16 PM 44.6 °F 38.4 °F 39.2 °F 81% 29.94 in 10.0 mi ESE 12.7 mph 24.2 mph N/A   Overcast
11:25 PM 44.6 °F 37.8 °F 39.2 °F 81% 29.94 in 10.0 mi East 15.0 mph 27.6 mph N/A   Overcast
11:54 PM 44.1 °F 38.1 °F 39.0 °F 82% 29.96 in 10.0 mi East 11.5 mph 21.9 mph 0.00 in Rain Light Rain